Weather in Monki

Poland     53°24′20″N   22°47′52″E
temp.,
°C
wind,
m/s
gust,
m/s
humid.,
%
clouds,
%
prec.,
mm/h
press.,
hPa
HPBL,
m
8 march, mon
mon801:00−3wnw5117923 0.0 1012544
04:00−4wnw513780 0.0 1012563
07:00−3nnw6109544 0.3 1013749
10:00−1nnw686345 0.2 10151128
13:000nw696123 0.2 10161309
16:000nw61066100 0.1 10171341
19:00−3nw5108098 0.2 1019480
22:00−4nnw368739 0.0 1020230
9 march, tue
tue901:00−4nnw248320 0.0 1022155
04:00−5nnw128313 0.0 102255
07:00−4nnw118253 0.0 1023151
10:00−2sw0171100 0.0 1023619
13:00−1ssw2258100 0.1 10241033
16:00−1ssw2358100 0.0 10231049
19:00−2s2466100 0.0 1024116
22:00−3s3566100 0.0 1024202
10 march, wed
wed1001:00−3s3567100 0.0 1024189
04:00−4s236936 0.0 102368
07:00−4s236918 0.0 1024125
10:00−1s22510 0.0 1024819
13:00+1s23420 0.0 10241263
16:00+1ssw11440 0.0 10241259
19:00−2se22550 0.0 102521
22:00−3sse35630 0.0 1025128
11 march, thu
thu1101:00−3s37623 0.0 1025207
04:00−3sse48611 0.0 1023228
07:00−3sse510583 0.0 1022388
10:00+1s8114971 0.0 10201119
13:00+2sse9135085 0.0 10161065
16:00+2s81461100 0.0 1013976
19:00−1s101793100 1.2 1009850
22:000s101697100 2.4 1006558
12 march, fri
fri1201:00+3ssw81496100 5.1 1002540
04:00+3sw61396100 0.1 1001478
07:00+3sw6129798 0.6 1003485
10:00+5wsw71286100 0.2 1004868
13:00+5wsw61283100 0.4 10061062
16:00+5wsw4108044 0.3 1007475
19:00+2sw5128826 0.6 1009264
22:00+1sw4118880 0.2 1010219